Location: Newark
(36.0797°N, 3.9744°E)
Time: 20:33:08
(UTC+00:00)

Vanguard 2 Rocket - Pass Details

Date: 08 December 2019
Orbit: 554 x 3326 km, 32.9° (Epoch: 24 January)

Event Time Altitude Azimuth Distance (km) Brightness Sun altitude
Rises 17:43:18 0° 237° (WSW) 6,685 12.9 -14.6°
Reaches altitude 10° 17:48:27 10° 233° (SW) 5,299 11.9 -15.6°
Maximum altitude 18:01:58 52° 164° (SSE) 2,054 8.6 -18.2°
Enters shadow 18:07:12 24° 100° (E) 2,473 8.6 -19.2°
Drops below altitude 10° 18:09:41 10° 90° (E) 3,115 - -19.7°
Sets 18:11:57 0° 85° (E) 3,814 - -20.1°
